Weather in Hanover

Germany     52˚22′40″N   9˚43′24″E
temp.,
°C
wind,
m/s
gust,
m/s
humid.,
%
clouds,
%
prec.,
mm/h
press.,
hPa
HPBL,
m
3 december, thu
thu301:00sse248956 0.0 1010136
04:00+1˚s368190 0.0 1008280
07:00+2˚sse378095 0.0 1006283
10:00+2˚sse487998 0.0 1004346
13:00+2˚s498499 0.1 1001427
16:00+3˚sse398261 0.0 999440
19:00+2˚s5128178 0.0 997587
22:00+2˚sse51376100 0.0 995594
4 december, fri
fri401:00+2˚se51169100 0.0 993506
04:00+2˚se51268100 0.0 990577
07:00+3˚se51365100 0.0 990698
10:00+4˚se51364100 0.3 990585
13:00+7˚sse3973100 0.3 990711
16:00+4˚ese376774 0.0 990193
19:00+3˚ese377484 0.0 992282
22:00+3˚se4981100 0.0 992437
5 december, sat
sat501:00+1˚ese248668 0.0 99397
04:00+1˚sse228291 0.0 99341
07:00+2˚e128181 0.1 99444
10:00+3˚sw2582100 0.0 996195
13:00+5˚s1185100 0.0 997201
16:00+3˚ene1190100 0.0 99724
19:00+3˚se2494100 1.8 999239
22:00+3˚nw0095100 1.8 99988
6 december, sun
sun601:00+3˚se0194100 1.9 100151
04:00+3˚ssw1193100 0.0 100153
07:00+3˚ese1293100 0.0 100241
10:00+3˚e2491100 0.0 1004176
13:00+4˚ne2486100 0.0 1003275
16:00+4˚nne3790100 0.5 1002466
19:00+4˚nne5993100 5.1 1001425
22:00+5˚ne51096100 5.7 999442
7 december, mon
mon701:00+7˚e51485100 6.6 997687
04:00+8˚ese51480100 0.0 995700
07:00+8˚ese51380100 0.1 995676
10:00+8˚ese51185100 0.3 996703
13:00+7˚sse4878100 1.1 996656
16:00+6˚sse61176100 0.0 997929
19:00+5˚sse7147498 0.0 9991248
22:00+5˚s81672100 0.0 10011276